Tracking 19651 objects as of 22-Apr-2019
HD Live streaming from Space Station
objects crossing your sky now

GORIZONT 13

Track GORIZONT 13 now!
GORIZONT 13 is classified as:


NORAD ID: 17083
Int'l Code: 1986-090A
Perigee: 36,735.4 km
Apogee: 36,900.9 km
Inclination: 15.5 °
Period: 1,488.8 minutes
Semi major axis: 43189 km
RCS: 2.5139 m2 (large)
Launch date: November 18, 1986
Source: Commonwealth of Independent States (former USSR) (CIS)
Launch site: TYURATAM MISSILE AND SPACE COMPLEX (TTMTR)
aabbcc
Your satellite tracking list
Your tracking list is empty




NASA's NSSDC Master Catalog

Two Line Element Set (TLE):
1 17083U 86090A   19111.61466711 -.00000108 +00000-0 +00000-0 0  9997
2 17083 015.5168 348.9286 0019156 314.0654 226.6112 00.96725438093367
Source of the keplerian elements: AFSPC